Regional Weather Roundup
Issued by NWS

Home | Current Version | Previous Version | Graphics & Text | Print | Product List | Glossary On
Versions: 1 2 3 4 5 6 7 8 9 10 11 12 13 14 15 16 17 18 19 20 21 22 23 24 25 26 27 28 29 30 31 32 33 34 35 36 37 38 39 40 41 42 43 44 45 46 47 48 49 50
000
ASUS43 KFSD 240402
RWRSD

WEATHER ROUNDUP FOR SOUTH DAKOTA
NATIONAL WEATHER SERVICE SIOUX FALLS SD
1100 PM CDT TUE AUG 23 2016

NOTE: "FAIR" INDICATES FEW OR NO CLOUDS BELOW 12,000 FEET WITH NO
SIGNIFICANT WEATHER AND/OR OBSTRUCTIONS TO VISIBILITY.


SDZ001>005-009-010-012>017-240500-
NORTHWEST AND NORTH CENTRAL SOUTH DAKOTA

CITY           SKY/WX    TMP DP  RH WIND       PRES   REMARKS
BUFFALO          N/A     58  37  45 NW12      29.97R
FAITH            N/A     62  36  37 NW8       30.00R
MOBRIDGE       MOCLDY    62  44  51 NW7       29.90R
$$

SDZ012>016-024>037-041>051-057-063-072>074-240500-
SOUTHWEST AND SOUTH CENTRAL SOUTH DAKOTA

CITY           SKY/WX    TMP DP  RH WIND       PRES   REMARKS
RAPID CTY ARPT PTCLDY    59  34  39 SW8       30.05R
PIERRE         PTCLDY    67  41  38 NW14      29.90R
CUSTER         CLOUDY    57  30  35 N5        30.16R
ELLSWORTH AFB  CLEAR     67  33  27 NW13      30.04R
PHILIP         PTCLDY    57  42  57 N9        29.97R
PINE RIDGE     CLOUDY    54  43  66 CALM      30.04R
WINNER         FAIR      65  47  52 NW8       29.93R
$$

SDZ004>011-016>023-039-040-240500-
NORTHEAST SOUTH DAKOTA

CITY           SKY/WX    TMP DP  RH WIND       PRES   REMARKS
ABERDEEN       PTCLDY    68  57  68 NW12      29.84R
WATERTOWN      PTCLDY    69  67  93 S8        29.83R
BROOKINGS      CLOUDY    69  68  96 S7        29.84R FOG
$$

SDZ017-020-022-023-036>040-048>070-240500-
SOUTHEAST SOUTH DAKOTA

CITY           SKY/WX    TMP DP  RH WIND       PRES   REMARKS
SIOUX FALLS    CLOUDY    73  72  96 CALM      29.81S
HURON          CLEAR     68  61  78 NW9       29.83R
CHAMBERLAIN    CLEAR     73  48  41 NW13      29.89R
MITCHELL       MOCLDY    74  66  76 N8        29.84R
YANKTON        CLOUDY    75  72  88 SW6       29.78F
$$

ABBREVIATIONS USED IN REMARKS
   TC - TEMPERATURE IN CELSIUS
  WCI - WIND CHILL INDEX
   HX - HEAT INDEX
  VSB - VISIBILITY





USA.gov is the U.S. government's official web portal to all federal, state and local government web resources and services.